This demonstration page uses our WeatherBlox Daily Observations layout. Learn more.

Left ArrowRight Arrow

Hourly Observations for September 17, 2022

Temp ( °F °C ) Dew Point ( °F °C ) Humidity (%) Winds ( mph kmh ) Pressure ( in mb ) Visibility ( mi km ) Precip ( " mm )
12:53 am 00:53 Clear 64 17.8 61 16.1 90 90 Calm 30.16 1021 10 16 0.00 0.00
1:53 am 01:53 Clear 63 17.2 60 15.6 90 90 Calm 30.15 1021 9 14 0.00 0.00
2:53 am 02:53 Clear 63 17.2 60 15.6 90 90 E 3 6 30.15 1021 9 14 0.00 0.00
3:53 am 03:53 Clear with Mist and Fog 62 16.7 60 15.6 93 93 Calm 30.16 1021 6 10 0.00 0.00
4:53 am 04:53 Clear 62 16.7 60 15.6 93 93 Calm 30.16 1021 9 14 0.00 0.00
5:53 am 05:53 Clear with Mist and Fog 61 16.1 59 15 93 93 Calm 30.17 1022 4 6 0.00 0.00
6:53 am 06:53 Clear with Mist and Fog 60 15.6 58 14.4 93 93 Calm 30.18 1022 4 6 0.00 0.00
7:53 am 07:53 Sunny with Mist and Fog 62 16.7 60 15.6 93 93 Calm 30.19 1022 5 8 0.00 0.00
8:53 am 08:53 Mostly Sunny 67 19.4 63 17.2 87 87 Calm 30.19 1023 8 13 0.00 0.00
9:53 am 09:53 Sunny 71 21.7 63 17.2 76 76 VRB 3 6 30.19 1022 10 16 0.00 0.00
10:53 am 10:53 Sunny 76 24.4 63 17.2 64 64 Calm 30.18 1022 10 16 0.00 0.00
11:53 am 11:53 Sunny 81 27.2 63 17.2 54 54 VRB 3 6 30.17 1022 10 16 0.00 0.00
12:53 pm 12:53 Sunny 83 28.3 63 17.2 51 51 undefined N/A 30.16 1021 10 16 0.00 0.00
1:53 pm 13:53 Mostly Sunny 83 28.3 62 16.7 49 49 WSW 6 9 30.14 1021 10 16 0.00 0.00
2:53 pm 14:53 Partly Cloudy 83 28.3 62 16.7 49 49 VRB 6 9 30.12 1020 10 16 0.00 0.00
3:53 pm 15:53 Mostly Cloudy 83 28.3 61 16.1 48 48 VRB 5 7 30.12 1020 10 16 0.00 0.00
4:53 pm 16:53 Partly Cloudy 83 28.3 62 16.7 49 49 VRB 6 9 30.10 1019 10 16 0.00 0.00
5:53 pm 17:53 Sunny 81 27.2 61 16.1 51 51 undefined N/A 30.09 1019 10 16 0.00 0.00
6:53 pm 18:53 Sunny 74 23.3 63 17.2 69 69 Calm 30.10 1019 10 16 0.00 0.00
7:53 pm 19:53 Mostly Clear 69 20.6 63 17.2 81 81 Calm 30.11 1020 10 16 0.00 0.00
8:53 pm 20:53 Clear 66 18.9 62 16.7 87 87 Calm 30.11 1020 10 16 0.00 0.00
9:53 pm 21:53 Clear 64 17.8 61 16.1 90 90 Calm 30.10 1019 10 16 0.00 0.00
10:53 pm 22:53 Clear 63 17.2 61 16.1 93 93 Calm 30.10 1019 10 16 0.00 0.00
11:53 pm 23:53 Clear 62 16.7 60 15.6 93 93 Calm 30.09 1019 9 14 0.00 0.00

Powered by AerisWeather